Hawk 12C

operational
NORAD ID: 64621 Int'l Des: 2025-138 Owner: HE360 Country: US
LEOCIRCULARRETROGRADESSO

Hawk 12Cについて

説明を読み込み中...

リアルタイム位置

3D地球を読み込み中...

次回通過

高度履歴

Altitude vs Time

uPlot chart will show altitude changes over time

軌道要素

1 64621U 25138A 25340.93682648 .00007744 00000-0 40228-3 0 9999
2 64621 97.4327 341.9442 0016471 91.6948 268.6172 15.16250493 24718
Epoch: Dec 6, 2025 • Age: 12 hours

現在のステータス

高度 552.7 km
速度 7.58 km/s
衛星直下点 -66.04°S, 120.07°E
打ち上げ日 Jun 26, 2025
運用期間 0.4 years
タイプ other

技術仕様

分類 Payload
質量 31.00 kg
乾燥質量 30.00 kg
総質量 31.00 kg
長さ 0.45 m
直径 0.30 m
スパン 1.00 m
形状 Box + 2 pan
製造者 UTIAS
バスタイプ Hawk2G
フェーズステータス In Orbit
所有者/国 HE360/US

大規模コンステレーション

Loading constellations...